Location: Barcelona
(41.3829°N, 2.1774°E)
Time: 19:13:08
(UTC+00:00)

ISS - Pass Details

Date: 17 October 2025
Orbit: 414 x 421 km, 51.6° (Epoch: 07 November)

Event Time Altitude Azimuth Distance (km) Brightness Sun altitude
Exits shadow 05:50:29 - 254° (WSW) 2,156 -0.7 -3.6°
Reaches altitude 10° 05:52:09 10° 260° (W) 1,497 -1.5 -3.3°
Maximum altitude 05:55:21 39° 332° (NNW) 641 -3.1 -2.7°
Drops below altitude 10° 05:58:33 10° 43° (NE) 1,509 -0.4 -2.1°
Sets 06:00:45 0° 51° (NE) 2,377 0.7 -1.7°
